Location: ???? ????????
(44.5778°N, 136.1492°E)
Time: 13:11:03
(UTC+00:00)

Daily predictions for brighter satellites

Satellite Brightness Start Highest point End
(mag) Time Altitude Azimuth Time Altitude Azimuth Time Altitude Azimuth
CZ-4 R/B 4.0 12:02:31 10° WSW 12:04:09 13° W 12:05:46 10° WNW
Cosmos 1805 4.0 12:01:37 10° NNE 12:04:24 26° ENE 12:04:40 25° E
CZ-4B R/B 3.6 12:06:24 28° SE 12:08:41 56° ENE 12:13:25 10° N
Meteor 1-25 Rocket 4.4 12:03:54 10° N 12:09:29 59° ENE 12:12:22 28° SE
Cosmos 1933 3.1 12:07:54 32° S 12:09:32 68° E 12:13:19 10° NNE
Cosmos 1992 Rocket 4.5 12:04:31 10° SSW 12:09:40 61° WNW 12:14:50 10° NNE
USA 186 2.4 12:10:20 29° SW 12:11:12 39° W 12:13:49 10° NNW
Cosmos 2219 Rocket 3.6 12:06:27 10° N 12:11:15 27° NE 12:14:23 17° E
Cosmos 1513 Rocket 4.5 12:08:22 19° S 12:12:50 67° E 12:18:56 10° NNE
Cosmos 2061 Rocket 4.4 12:07:17 10° SSW 12:13:26 64° W 12:19:42 10° N
Cosmos 1464 Rocket 4.3 12:10:40 26° SSE 12:13:45 46° E 12:19:36 10° NNE
CZ-2C R/B 2.9 12:17:39 33° ENE 12:17:39 33° ENE 12:19:58 10° N
USA 245 4.3 12:17:39 25° S 12:21:19 84° WSW 12:27:00 10° NNW
Cosmos 1602 Rocket 3.4 12:23:06 10° N 12:27:27 81° E 12:28:51 42° SSE
Cosmos 2322 Rocket 2.4 12:23:49 10° NNW 12:29:25 58° ENE 12:31:50 33° SE
Cosmos 2082 Rocket 4.1 12:26:17 10° WSW 12:31:17 31° NW 12:36:19 10° N
IRS-1C Rocket 4.0 12:28:51 33° SSE 12:31:18 87° ENE 12:36:37 10° NNW
Cosmos 1072 Rocket 4.5 12:28:12 27° S 12:31:43 70° E 12:38:01 10° NNE
Okean 1 3.8 12:32:27 36° ENE 12:32:27 36° ENE 12:35:26 10° NNE
Terra 4.3 12:34:36 10° SW 12:37:18 15° W 12:40:02 10° NW
NOSS 3-4 (A) 3.9 12:30:34 10° NW 12:37:21 73° NE 12:41:34 30° SE
Cosmos 1486 Rocket 4.0 12:32:14 10° NNW 12:37:30 76° ENE 12:39:23 41° SE
NOSS 3-4 (C) 3.9 12:31:12 10° NW 12:38:00 72° NE 12:42:13 30° SE
Cosmos 1461 3.9 12:34:32 10° WSW 12:38:03 41° NW 12:41:34 10° NNE
Cosmos 220 Rocket 4.1 12:37:19 24° SW 12:39:39 67° WNW 12:43:44 10° NNE
Meteor 2-10 4.2 12:36:30 10° N 12:42:15 72° ENE 12:44:22 40° SSE
Cosmos 2098 Rocket 3.1 12:41:21 36° S 12:43:18 88° WNW 12:47:36 10° N
Cosmos 1076 Rocket 3.8 12:44:00 10° N 12:48:07 47° ENE 12:48:30 46° E
Helios 1A 4.1 12:45:35 10° NE 12:48:15 27° ENE 12:48:15 27° ENE
Cosmos 1437 Rocket 4.2 12:47:47 18° SW 12:49:46 31° WNW 12:53:00 10° N
Cosmos 2034 Rocket 4.1 12:49:26 38° SSE 12:51:50 61° E 12:58:04 10° NNE
ISS -1.5 12:51:47 10° NW 12:54:35 24° N 12:56:44 14° NE
Cosmos 2278 3.8 12:49:20 10° NNW 12:55:01 67° WSW 12:57:01 40° S
Cosmos 540 Rocket 3.5 12:55:05 50° SSE 12:55:59 58° ESE 13:01:03 10° NNE
Cosmos 2151 4.3 12:52:40 10° NNW 12:56:20 32° W 12:57:50 24° SW
Meteor 1-5 Rocket 4.3 12:51:14 10° NNW 12:57:01 81° W 12:59:16 40° S
USA 290 2.9 12:57:45 49° N 12:57:45 49° N 13:00:10 10° NNE
COSMOS 2428 4.5 12:53:07 10° N 12:57:31 22° NE 13:00:27 15° E
Cosmos 1606 Rocket 3.5 12:58:37 53° SSW 12:59:34 79° W 13:03:55 10° N
SL-16 R/B 2.8 12:54:13 10° NW 12:59:38 47° WSW 13:01:43 33° SSW
DELTA 2 R/B (1) 3.8 12:55:12 10° W 13:00:29 45° SSW 13:00:45 45° S
Okean O Rocket 4.1 13:05:39 10° WSW 13:07:49 14° W 13:09:58 10° WNW
Cosmos 1726 Rocket 3.2 13:08:09 81° SSW 13:08:19 87° W 13:12:24 10° N
Cosmos 468 Rocket 4.4 13:10:37 43° ESE 13:10:40 43° ESE 13:15:38 10° NNE
Nadezhda 4 Rocket 4.0 13:05:00 10° NNW 13:11:06 72° W 13:13:25 39° SSW
Geosat 3.8 13:09:07 10° NNE 13:14:07 72° ESE 13:14:58 58° S
Cosmos 1634 Rocket 4.2 13:14:36 44° SE 13:15:54 52° E 13:21:53 10° NNE
Ariane Rocket 4.2 13:17:46 27° SW 13:19:32 34° W 13:24:09 10° NNW
Okean 1-7 Rocket 4.4 13:18:59 10° NNW 13:23:13 43° W 13:24:01 39° WSW
Cosmos 2333 Rocket 3.3 13:21:34 10° NW 13:26:36 33° WSW 13:28:13 28° SW
Cosmos 2195 Rocket 4.5 13:23:08 10° N 13:29:21 77° W 13:31:07 48° SSW
Cosmos 1766 4.2 13:27:20 10° N 13:29:23 35° N 13:29:23 35° N
Cosmos 1833 4.4 13:28:33 33° SW 13:31:10 70° WNW 13:36:48 10° NNE
Cosmos 2297 Rocket 4.0 13:32:59 17° E 13:32:59 17° E 13:35:42 10° ENE
IKONOS-2 4.4 13:28:22 10° N 13:32:25 78° WNW 13:32:25 78° WNW
Cosmos-2242 2.9 13:32:48 77° N 13:32:48 77° N 13:36:40 10° N
Cosmos 2026 Rocket 4.0 13:27:28 10° N 13:33:53 84° W 13:35:39 51° S
Cosmos 1763 Rocket 4.0 13:34:00 34° SW 13:36:07 58° WNW 13:41:20 10° NNE
Cosmos 1627 Rocket 4.5 13:30:21 10° N 13:36:46 84° W 13:38:30 52° S
Meteor 2-6 Rocket 4.4 13:37:28 54° SE 13:38:17 60° E 13:44:09 10° NNE
Cosmos 1898 Rocket 4.2 13:35:28 10° N 13:40:23 42° ENE 13:41:14 39° E
Cosmos 2360 Rocket 2.8 13:36:25 10° NW 13:41:45 42° WSW 13:42:42 39° SW
Cosmos 2322 4.3 13:37:27 10° NNW 13:42:58 48° ENE 13:44:18 41° E
Cosmos 990 Rocket 4.1 13:41:42 10° NNW 13:46:47 58° WSW 13:47:12 56° SW
CZ-2C R/B 3.9 13:50:17 10° NNE 13:54:13 60° ENE 13:54:13 60° ENE
Cosmos 44 3.3 13:49:47 10° NW 13:55:13 87° ENE 13:55:34 78° SE
Cosmos 2219 Rocket 2.4 13:49:58 10° NW 13:55:28 53° WSW 13:56:04 51° SW
Cosmos 2221 3.4 13:57:43 40° NE 13:57:43 40° NE 14:00:47 10° NNE
Meteor 1-19 Rocket 4.5 14:00:35 53° ESE 14:00:59 55° E 14:06:44 10° NNE
Helios 1B rocket 3.5 14:05:27 34° NW 14:05:27 34° NW 14:07:41 10° NNW
Cosmos 1536 4.0 14:04:04 10° NNW 14:06:36 36° NW 14:06:36 36° NW
Cosmos 841 Rocket 3.5 14:08:32 68° E 14:08:32 68° E 14:13:33 10° NNE
Cosmos 2058 Rocket 3.9 14:08:54 41° W 14:08:58 41° WNW 14:13:05 10° N
Cosmos 2322 Rocket 3.8 14:08:43 10° NW 14:12:58 22° W 14:13:37 22° WSW
GP-B 4.2 14:09:42 10° NNE 14:13:05 35° ENE 14:13:05 35° ENE
Cosmos 1470 4.3 14:10:30 10° N 14:12:14 29° NNW 14:12:14 29° NNW
Cosmos 2142 Rocket 4.4 14:21:49 66° S 14:22:47 85° E 14:29:03 10° N
Cosmos 2180 Rocket 4.3 14:23:05 66° S 14:24:02 84° E 14:30:23 10° N
ARIANE 5 R/B 2.9 14:25:28 62° NW 14:25:28 62° NW 14:29:22 10° NNW
ALOS 2 2.9 14:27:02 66° NNW 14:27:02 66° NNW 14:30:50 10° NNW
Meteor 2-9 Rocket 4.0 14:21:09 10° NNW 14:26:34 81° W 14:26:50 78° SW
Cosmos 372 Rocket 4.2 14:24:04 10° NNW 14:28:46 55° W 14:28:46 55° W
ISS -1.2 14:28:36 10° NW 14:29:40 18° NW 14:29:40 18° NW
Cosmos 2237 Rocket 3.0 14:26:31 10° NNW 14:31:59 45° ENE 14:33:25 37° E
CZ-2C R/B 3.3 14:31:45 40° E 14:32:30 42° ENE 14:37:24 10° N
NOSS 0 Rocket 3.8 14:28:30 10° NNW 14:34:43 81° ENE 14:35:40 65° SE
Cosmos 1975 4.1 14:31:52 10° NNW 14:34:08 34° NNW 14:34:08 34° NNW
Cosmos 1980 4.2 14:30:36 10° NNW 14:36:08 52° ENE 14:37:18 44° E
USA 234 3.1 14:29:44 10° NE 14:36:18 79° SE 14:37:55 54° SSW
Spot 4 4.2 14:37:12 55° WNW 14:37:12 55° WNW 14:41:32 10° NNW
RESURS DK-1 3.5 14:33:57 10° NNW 14:36:32 38° NW 14:36:32 38° NW
Meteor 2-4 Rocket 4.2 14:41:40 44° E 14:41:44 44° E 14:46:56 10° NNE
Cosmos 2227 Rocket 3.5 14:42:13 27° E 14:42:13 27° E 14:46:33 10° NE
COSMOS 2428 2.6 14:36:37 10° NNW 14:42:18 69° WSW 14:42:24 69° WSW
Meteor 1-11 Rocket 3.5 14:37:28 10° N 14:43:10 90° W 14:43:28 81° S
Meteor 1-10 Rocket 4.2 14:45:12 71° SW 14:45:51 81° W 14:51:50 10° N
Cosmos 858 Rocket 4.4 14:41:02 10° NNW 14:46:13 78° ENE 14:46:15 78° ENE
ARGOS Delta rocket 4.3 14:43:50 10° N 14:48:55 57° WNW 14:49:22 55° W
BREEZE-M DEB (TANK) 4.3 14:27:51 10° SW 14:48:55 63° SSE 14:54:28 10° ENE
PSLV R/B 4.1 14:45:08 10° N 14:48:54 56° NW 14:48:54 56° NW
Cosmos 1937 Rocket 3.5 14:44:25 10° NNW 14:49:12 67° W 14:49:12 67° W
Cosmos 1766 Rocket 4.3 14:46:48 10° N 14:50:23 45° NE 14:50:23 45° NE
Cosmos 2263 Rocket 3.8 14:52:40 21° E 14:52:40 21° E 14:56:29 10° NE
Lacrosse 4 Rocket 2.9 14:55:01 28° ENE 14:55:01 28° ENE 14:57:13 10° NE
Meteor 2-20 Rocket 4.2 14:57:12 67° SE 14:57:37 70° E 15:03:18 10° NNE
ACS3 Solar Sail 2.7 14:53:45 10° NNE 14:59:03 32° E 14:59:54 31° ESE
Meteor 1-27 Rocket 3.6 15:00:42 76° S 15:01:11 88° E 15:06:59 10° N
Meteor 2-20 4.4 15:06:13 62° SW 15:07:04 71° W 15:13:11 10° N
MetOp-A 4.1 15:10:01 61° WNW 15:10:01 61° WNW 15:14:20 10° NNW
CZ-2C R/B 3.2 15:04:27 10° N 15:10:13 76° WNW 15:10:55 67° SW
SeaSat 1 3.2 15:10:39 39° E 15:11:48 46° NE 15:16:29 10° NNW
Cosmos 2297 Rocket 2.2 15:14:44 63° WSW 15:15:24 70° WNW 15:21:03 10° NNE
Cosmos 1238 Rocket 3.8 15:29:51 43° NW 15:29:51 43° NW 15:33:09 10° N
Meteor 2-10 Rocket 3.6 15:25:26 10° N 15:31:00 78° E 15:31:44 67° SE
BREEZE-M R/B 4.0 15:27:37 10° WNW 15:33:29 69° SW 15:40:44 10° SE
Cosmos 1066 Rocket 3.9 15:39:40 75° SW 15:40:05 83° W 15:45:37 10° N
Cosmos 1814 Rocket 3.8 15:40:06 81° WSW 15:40:18 85° WNW 15:45:34 10° NNE
Okean 3 Rocket 3.8 15:38:47 10° N 15:43:11 67° ENE 15:43:11 67° ENE
Cosmos 1758 4.3 15:40:46 10° N 15:43:27 40° NE 15:43:27 40° NE
Cosmos 1842 Rocket 3.9 15:48:32 60° NW 15:48:32 60° NW 15:52:29 10° N
BlueWalker 3 3.1 15:53:15 38° NNE 15:53:15 38° NNE 15:55:46 10° NE
Landsat 5 4.2 15:49:22 10° N 15:52:44 42° NW 15:52:44 42° NW
Cosmos 1655 Rocket 4.2 15:48:52 10° NNW 15:54:54 53° W 15:55:49 49° WSW
Meteor 1-18 Rocket 4.0 15:54:18 67° SSW 15:55:02 81° W 16:00:43 10° N
Sich 1 3.2 15:53:13 10° N 15:56:46 62° NNW 15:56:46 62° NNW
IDEFIX/ARIANE 42P 3.7 15:53:43 10° NNE 15:58:23 32° E 15:59:40 29° ESE
Cosmos 1805 Rocket 3.8 15:55:59 10° N 16:00:17 61° E 16:00:22 61° E
Cosmos 1340 Rocket 3.6 15:56:39 10° N 16:00:11 45° ENE 16:00:11 45° ENE
SL-14 R/B 3.8 16:01:58 52° NNW 16:01:58 52° NNW 16:04:59 10° N
SL-16 R/B 2.5 15:58:23 10° NNW 16:04:05 66° ENE 16:06:34 34° SE
Cosmos 2219 3.8 16:03:34 40° SE 16:04:34 44° ESE 16:09:52 10° NE
Cosmos 1743 Rocket 4.5 16:01:03 10° N 16:05:08 40° ENE 16:05:54 36° ESE
ADEOS Rocket 4.3 16:04:19 10° NNE 16:11:26 40° E 16:15:15 24° SSE
CZ-2C R/B 3.8 16:13:11 26° W 16:13:11 26° W 16:17:13 10° NW
Cosmos 2237 Rocket 3.3 16:10:58 10° NW 16:15:11 29° W 16:15:11 29° W
Spot 1 4.2 16:13:29 10° NNE 16:18:12 82° ESE 16:18:47 68° S
USA 234 4.2 16:12:56 10° NE 16:19:02 44° NNW 16:25:09 10° W
In-Cosmos 22 4.2 16:19:04 54° SW 16:20:04 65° WNW 16:25:41 10° N
Cosmos 1953 3.8 16:18:59 10° NNE 16:22:09 27° ENE 16:23:03 24° E
Cosmos 1408 Rocket 3.4 16:20:04 10° NNW 16:24:13 71° W 16:24:13 71° W
Cosmos 2227 Rocket 2.8 16:23:59 38° WSW 16:25:34 48° WNW 16:31:05 10° NNE
Cosmos 2084 3.7 16:25:01 10° NNW 16:29:06 63° NE 16:30:34 37° ESE
Lacrosse 4 Rocket 3.3 16:30:24 18° WNW 16:31:21 20° NW 16:34:22 10° N
ATLAS 2AS CENTAUR R/B 3.6 16:26:08 10° NNW 16:32:40 47° NE 16:39:11 10° ESE
Cosmos 2263 Rocket 2.4 16:34:19 44° WSW 16:35:50 61° WNW 16:41:23 10° NNE
ACS3 Solar Sail 2.4 16:35:53 10° N 16:41:28 43° WNW 16:43:23 33° WSW
NOSS 2-2 (C) 3.5 16:44:15 48° E 16:44:15 48° E 16:46:42 10° NE
S3M 3.9 16:41:30 41° S 16:43:54 90° W 16:50:05 10° N
Cosmos 1943 3.7 16:43:22 10° NNW 16:48:56 58° ENE 16:54:25 10° SE
SeaSat 1 3.7 16:50:14 25° W 16:50:14 25° W 16:53:24 10° NW
ADEOS II 4.3 16:49:48 10° NE 16:53:15 18° E 16:56:41 10° SE
Cosmos 2315 Rocket 4.0 16:50:40 34° S 16:53:39 85° E 17:00:01 10° N
MSX 3.8 16:51:45 10° NNE 16:57:33 80° WNW 16:59:56 38° SSW
Cosmos 1151 Rocket 4.1 16:58:38 29° W 16:59:00 29° WNW 17:02:49 10° NNW
Cosmos 1703 3.3 16:59:36 48° NW 16:59:36 48° NW 17:02:19 10° N
Cosmos 2297 Rocket 4.5 16:57:30 10° WNW 17:00:31 14° NW 17:03:32 10° N
Tiangong 0.0 17:04:13 18° ESE 17:04:13 18° ESE 17:05:15 10° ESE
Cosmos 1570 Rocket 4.0 17:01:32 41° SW 17:03:19 69° WNW 17:08:38 10° NNE
Resurs 1-4 Rocket 3.4 16:59:44 10° NNE 17:04:29 33° E 17:08:22 14° SSE
Cosmos 2298 Rocket 4.4 17:00:16 10° NNW 17:05:35 64° ENE 17:10:50 10° SSE
Cosmos 1633 Rocket 3.1 17:02:22 10° N 17:06:41 72° E 17:08:47 29° SSE
Cosmos 1844 Rocket 3.2 17:04:15 27° S 17:07:01 51° ESE 17:12:24 10° NE
Cosmos 1470 Rocket 4.4 17:03:43 10° N 17:07:57 48° ENE 17:11:20 15° SSE
Cosmos 2082 3.7 17:05:46 37° SW 17:08:01 71° WNW 17:13:40 10° NNE
Cosmos 1125 Rocket 4.1 17:04:39 10° NW 17:09:28 37° WSW 17:10:15 35° WSW
CENTAUR R/B 2.5 17:11:01 32° S 17:13:30 63° ESE 17:20:06 10° NE
Cosmos 1709 Rocket 4.1 17:08:22 10° NNW 17:14:26 60° W 17:17:39 29° SSW
NOSS 2-2 (D) 3.2 17:15:07 48° SSE 17:15:33 53° SE 17:18:34 10° NE
CZ-4C R/B 4.1 17:09:18 10° NNW 17:15:44 43° NE 17:23:42 10° ESE
Cosmos 773 Rocket 4.2 17:18:43 34° SW 17:20:45 56° WNW 17:25:48 10° NNE
Meteor 1-21 4.3 17:17:53 25° S 17:21:16 78° E 17:26:53 10° NNE
Atlas Centaur 2 3.7 17:23:32 24° SSW 17:25:22 27° S 17:31:45 10° ESE
Geosat FO 4.3 17:24:53 10° NE 17:27:30 51° ESE 17:27:48 47° SE
Cosmos 2150 Rocket 4.0 17:24:14 10° NNW 17:29:40 76° WSW 17:35:04 10° SSE
BlueWalker 3 4.1 17:27:29 10° WNW 17:30:17 21° N 17:33:04 10° NE
CRYOSAT 2 4.5 17:32:30 28° SSW 17:34:56 57° W 17:39:46 10° NNW
Okean 2 3.2 17:33:47 28° S 17:35:42 77° E 17:39:31 10° NNE
FENGYUN 3A 4.1 17:32:34 10° N 17:37:45 48° WNW 17:40:36 25° SW
IDEFIX/ARIANE 42P 3.4 17:33:07 10° N 17:37:50 35° WNW 17:40:21 23° WSW
COSMOS 2441 4.4 17:33:34 10° N 17:38:20 69° WNW 17:40:59 26° SSW
Cosmos 1666 Rocket 4.1 17:34:41 10° NNW 17:38:52 41° W 17:40:32 29° SW
BREEZE-M DEB (TANK) 4.3 17:40:36 10° NW 17:43:30 25° N 17:45:23 10° ENE
H-2A R/B 2.7 17:39:03 10° NNE 17:44:22 56° E 17:49:33 11° S
CZ-2D R/B 2.4 17:39:22 10° NNE 17:44:47 67° ESE 17:49:30 14° S
Cosmos 1844 3.7 17:41:18 23° SSW 17:45:00 89° WNW 17:50:48 10° NNE
SL-16 R/B 3.5 17:43:40 10° NW 17:47:35 19° W 17:48:21 19° WSW
Cosmos 2219 4.3 17:45:26 18° WSW 17:48:49 31° NW 17:53:48 10° N
NPP 4.5 17:47:03 10° N 17:51:56 36° WNW 17:55:04 20° WSW
USA 281 3.2 17:46:05 10° SSE 17:52:39 82° WSW 17:59:16 10° NNW
Cosmos 2344 4.3 17:47:13 11° S 17:54:39 47° ESE 18:01:27 10° NE
IRIDIUM 104 4.4 17:50:22 10° N 17:55:37 81° E 18:00:51 10° S
Cosmos 1953 3.6 17:54:16 10° NW 17:56:52 19° W 17:57:15 19° W
ADEOS Rocket 4.0 17:49:40 10° N 17:56:53 46° WNW 18:02:10 17° SW
DMSP B5D2-2 4.1 17:52:19 11° S 17:57:19 60° W 18:02:30 10° NNW
Cosmos 2154 Rocket 4.0 17:51:22 10° N 17:57:39 85° E 18:03:51 10° S
NOSS 3-2 (A) 3.8 17:54:49 15° S 17:58:40 45° ESE 18:04:04 10° NE
Envisat 3.0 17:54:39 10° N 17:59:42 69° WNW 18:03:34 17° SSW
Cosmos 2074 Rocket 4.0 17:53:57 10° N 18:00:16 82° W 18:06:30 10° S
Cosmos 1515 Rocket 3.6 17:57:45 20° SSW 18:00:42 62° W 18:05:06 10° N
IRIDIUM 114 4.3 17:59:32 10° N 18:04:47 84° W 18:09:59 10° S
Cosmos 1812 4.4 18:05:20 10° ENE 18:05:51 11° ENE 18:06:21 10° E
Cosmos 2184 Rocket 3.9 18:00:10 10° N 18:06:20 77° W 18:12:28 10° S
EXPRESS MD2 3.9 18:04:34 10° NW 18:06:44 35° NNE 18:09:37 10° E
ARGOS 4.3 18:02:01 10° NNE 18:07:04 41° E 18:12:04 10° SSE
Cosmos 1400 Rocket 3.6 18:06:07 10° N 18:09:49 49° ENE 18:13:29 10° SSE
IRIDIUM 103 4.3 18:08:43 10° N 18:13:55 70° W 18:19:05 10° S
ALOS 2.4 18:13:55 10° N 18:18:23 58° WNW 18:22:23 13° SSW
NOSS 2-2 (E) 3.5 18:18:32 17° WSW 18:20:52 41° NW 18:23:46 10° NNE
Cosmos 2263 Rocket 4.4 18:18:33 10° WNW 18:20:57 13° NW 18:23:21 10° NNW
Cosmos 1867 3.8 18:17:04 10° NW 18:22:17 46° WSW 18:27:27 10° S
ATLAS 2AS CENTAUR R/B 3.0 18:17:12 10° NW 18:23:30 42° WSW 18:29:50 10° S
Okean 1-7 4.3 18:26:13 10° SSE 18:30:00 38° E 18:33:50 10° NNE
H-2A R/B 2.6 18:26:47 10° S 18:30:08 39° W 18:33:32 10° NNW
Cosmos 1610 Rocket 4.5 18:25:15 10° N 18:31:27 79° W 18:37:41 10° S
Cosmos 1943 4.4 18:28:16 10° NW 18:32:28 22° W 18:36:37 10° SSW
ADEOS II 2.2 18:28:03 10° N 18:33:14 64° WNW 18:38:22 10° SSW
Cosmos 1733 Rocket 4.1 18:30:12 10° N 18:34:26 49° ENE 18:38:36 10° SSE
Okean 3 4.0 18:33:46 11° SW 18:37:24 38° WNW 18:41:10 10° N
METEOR-M 4.1 18:32:51 10° NNE 18:38:11 78° WNW 18:43:30 10° SSW
Tiangong -0.7 18:36:23 11° WSW 18:38:35 21° SSW 18:41:03 10° SSE
Cosmos 1538 Rocket 4.0 18:38:07 10° SSW 18:43:15 70° WNW 18:48:24 10° NNE
Resurs 1-4 Rocket 2.9 18:39:28 10° N 18:44:12 35° WNW 18:48:55 10° SW
BREEZE-M DEB (TANK) 3.1 18:42:20 10° WNW 18:46:50 38° N 18:49:14 10° ENE
Cosmos 1833 Rocket 3.5 18:44:22 10° NNW 18:49:57 59° ENE 18:55:30 10° SE
Cosmos 1844 Rocket 3.9 18:46:24 10° WSW 18:51:08 28° NW 18:55:54 10° N
CZ-2C R/B 3.5 18:52:01 10° NNE 18:56:23 43° E 19:00:41 10° S
Cosmos 923 Rocket 4.4 18:51:11 10° S 18:56:27 69° ESE 19:01:43 10° NNE
